User: anonymous   Login
Location: Cluny
(50.9333°N, 112.8167°W)
Time: 04:04:55
(UTC-06:00)
Language:

Cosmos 1743 Rocket - Orbit

View from above orbital plane
View from above orbital plane
View from above satellite
View from above satellite

Ground track
Ground track

The orbit data is extracted from the following two-line orbital elements,

1 16720U 86034B   16118.90286303  .00000139  00000-0  13968-4 0  9999
2 16720  82.5528 268.6411 0021087  35.3051  77.5336 14.83220234617702
Epoch (UTC): 27 April 2016 21:40:07
Eccentricity: 0.0021087
inclination: 82.5528°
perigee height: 604 km
apogee height: 634 km
right ascension of ascending node: 268.6411°
argument of perigee: 35.3051°
revolutions per day: 14.83220234
mean anomaly at epoch: 77.5336°
orbit number at epoch: 61770

The dashed part of the orbit path shows where the satellite is in the earth's shadow,  

DLR